EDT,Max TemperatureF,Mean TemperatureF,Min TemperatureF,Max Dew PointF,MeanDew PointF,Min DewpointF,Max Humidity, Mean Humidity, Min Humidity, Max Sea Level PressureIn, Mean Sea Level PressureIn, Min Sea Level PressureIn, Max VisibilityMiles, Mean VisibilityMiles, Min VisibilityMiles, Max Wind SpeedMPH, Mean Wind SpeedMPH, Max Gust SpeedMPH,PrecipitationIn, CloudCover, Events, WindDirDegrees
2013-4-1,61,48,34,41,36,10,93,75,34,30.53,30.07,29.55,10,6,2,17,7,29,0.37,6,,331
2013-4-2,36,32,28,13,10,5,49,38,27,30.68,30.61,30.54,10,10,10,23,10,32,0.00,1,,280
2013-4-3,45,37,29,13,7,2,47,32,16,30.92,30.73,30.67,10,10,10,21,12,32,0.00,0,,291
2013-4-4,54,42,29,20,13,8,53,32,18,31.04,30.90,30.76,10,10,10,13,8,17,0.00,0,,273
2013-4-5,61,49,37,28,22,16,68,42,20,30.76,30.57,30.38,10,10,10,18,6,29,0.00,1,,330
2013-4-6,45,38,30,21,8,-1,57,33,15,31.10,30.92,30.65,10,10,10,30,15,34,0.00,1,,329
2013-4-7,55,40,26,37,23,14,73,51,21,31.10,30.91,30.73,10,10,10,13,3,23,0.00,1,,185
2013-4-8,63,50,36,39,35,30,93,58,28,30.83,30.77,30.70,10,10,7,16,3,22,0.00,0,,324
2013-4-9,68,56,44,47,42,38,93,67,37,30.77,30.54,29.90,10,10,8,20,5,37,0.04,4,Thunderstorm,334
2013-4-10,57,51,45,52,47,41,94,87,67,30.74,30.35,29.88,10,6,2,9,2,,0.58,8,Rain,122
2013-4-11,50,44,39,46,38,23,100,75,38,30.90,30.46,29.86,10,7,2,15,6,,0.08,6,,350
2013-4-12,41,38,34,34,32,28,93,85,60,30.96,30.50,29.84,10,5,1,15,6,23,0.44,7,Rain,62
2013-4-13,50,42,34,37,34,32,93,77,50,30.69,30.34,29.82,10,8,2,13,6,21,0.08,7,,342
2013-4-14,50,44,36,37,30,24,86,58,36,30.98,30.77,30.66,10,10,10,18,5,26,0.00,4,,316
2013-4-15,59,44,30,36,30,27,92,62,33,31.15,31.09,30.99,10,10,10,15,3,,0.00,0,,110
2013-4-16,68,52,36,52,41,33,89,67,39,31.15,30.95,30.06,10,10,10,14,3,28,0.01,4,,201
2013-4-17,63,56,43,52,33,25,77,44,23,31.09,30.90,30.06,10,10,10,16,9,22,0.00,2,,330
2013-4-18,63,48,34,41,31,24,85,52,29,31.15,30.29,28.22,10,10,10,14,4,21,0.00,3,,139
2013-4-19,74,63,52,61,55,43,93,74,53,30.87,30.43,29.75,10,9,2,13,4,24,0.00,7,Rain,180
2013-4-20,66,56,41,63,41,19,94,69,31,30.98,30.27,29.62,10,7,1,17,8,32,0.44,6,Rain,305
2013-4-21,52,42,32,27,18,14,70,41,22,31.12,28.93,28.21,10,10,10,15,8,23,0.00,0,,338
2013-4-22,52,42,31,32,27,18,82,59,28,30.63,28.67,28.43,10,10,10,14,5,25,0.00,1,,72
2013-4-23,41,38,36,39,36,30,93,87,76,31.14,29.83,28.22,10,4,2,10,5,,0.00,8,Rain,15
2013-4-24,77,59,41,47,41,33,93,65,20,30.87,30.54,29.97,10,9,3,18,8,22,0.00,4,,342
2013-4-25,61,52,41,50,33,20,84,50,20,31.03,30.77,29.93,10,10,5,17,8,28,0.07,2,Rain,310
2013-4-26,61,46,32,34,31,28,86,54,31,31.15,30.15,28.20,10,10,10,13,5,18,0.00,2,,64
2013-4-27,65,50,34,35,33,31,89,53,28,31.15,29.76,28.21,10,10,10,9,3,18,0.00,2,,158
2013-4-28,70,53,36,37,34,30,86,50,25,31.10,31.03,30.95,10,10,10,14,4,21,0.00,0,,122
2013-4-29,70,56,43,43,34,24,71,44,27,31.02,30.97,30.92,10,10,10,14,3,17,0.00,2,,170
2013-4-30,70,58,45,34,26,19,59,31,17,31.12,31.05,31.00,10,10,10,10,3,17,0.00,1,,128